User: anonymous   Login
Location: Unspecified
(0.0000°N, 0.0000°E)
Time: 07:41:41
(UTC+00:00)
Language:

METEOR-M - Orbit

View from above orbital plane
View from above orbital plane
View from above satellite
View from above satellite

Ground track
Ground track

The orbit data is extracted from the following two-line orbital elements,

1 35865U 09049A   17296.93258665 +.00000016 +00000-0 +25996-4 0  9990
2 35865 098.4164 312.8508 0003349 119.7172 240.4340 14.22123325420250
Epoch (UTC): 23 October 2017 22:22:55
Eccentricity: 0.0003349
inclination: 98.4164°
perigee height: 816 km
apogee height: 820 km
right ascension of ascending node: 312.8508°
argument of perigee: 119.7172°
revolutions per day: 14.22123325
mean anomaly at epoch: 240.4340°
orbit number at epoch: 42025

The dashed part of the orbit path shows where the satellite is in the earth's shadow,  

DLR